Weather History for Cleveland, OH

Change the Weather History Date:

Friday, March 28, 2014

  Actual Average Record
Temperature  
Mean Temperature 48 °F 43 °F  
Max Temperature 56 °F 51 °F 80 °F (1945)
Min Temperature 40 °F 34 °F 9 °F (1982)
Degree Days  
Heating Degree Days 17 22  
Month to date heating degree days 928 759  
Since 1 July heating degree days 5609 4976  
Cooling Degree Days 0 0  
Month to date cooling degree days 0 0  
Year to date cooling degree days 0 0  
Moisture  
Dew Point 38 °F    
Average Humidity 62    
Maximum Humidity 79    
Minimum Humidity 44    
Precipitation  
Precipitation 0.01 in 0.11 in 1.71 in (1985)
Month to date precipitation 1.58 2.60  
Year to date precipitation 6.61 7.66  
Snow  
Snow 0.00 in 0.30 in - ()
Month to date snowfall 10.1 11.8  
Since 1 July snowfall 79.8 64.0  
Snow Depth 0.00 in    
Sea Level Pressure  
Sea Level Pressure 29.91 in    
Wind  
Wind Speed 16 mph (WSW)    
Max Wind Speed 35 mph    
Max Gust Speed 43 mph    
Visibility 10 miles    
Events Rain    
T = Trace of Precipitation, MM = Missing Value Source: NWS Daily Summary

Daily Weather History Graph

Daily Weather History Graph

Search for Another Location

Airport:

Trip Planner

Search our weather history database for the weather conditions in past years. The results will help you decide how hot, cold, wet, or windy it might be!

Date:

Astronomy

Mar. 28, 2014 Rise Set
Actual Time 7:17 AM EDT 7:48 PM EDT
Civil Twilight 6:49 AM EDT 8:16 PM EDT
Nautical Twilight 6:16 AM EDT 8:48 PM EDT
Astronomical Twilight 5:43 AM EDT 9:22 PM EDT
Moon 5:48 AM EDT (3/28) 5:42 PM EDT (3/28)
Length of Visible Light 13h 26m
Length of Day
12h 31m
Waning Crescent, 6% of the Moon is Illuminated
Mar 28
Waning Crescent
Mar 30
New
Apr 7
First Quarter
Apr 15
Full
Apr 22
Last Quarter

Hourly Weather History & Observations

Time (EDT) Temp. Windchill Dew Point Humidity Pressure Visibility Wind Dir Wind Speed Gust Speed Precip Events Conditions
12:51 AM 46.9 °F - 35.1 °F 63% 29.79 in 10.0 mi South 11.5 mph - 0.04 in Rain Light Rain
1:51 AM 48.0 °F - 33.1 °F 56% 29.77 in 10.0 mi South 11.5 mph - 0.00 in   Overcast
2:51 AM 51.1 °F - 30.0 °F 44% 29.76 in 10.0 mi South 16.1 mph 24.2 mph 0.00 in   Mostly Cloudy
3:51 AM 51.1 °F - 33.1 °F 50% 29.75 in 10.0 mi South 16.1 mph - N/A   Overcast
4:51 AM 53.1 °F - 37.0 °F 55% 29.73 in 10.0 mi SSW 19.6 mph 31.1 mph N/A   Overcast
5:51 AM 53.1 °F - 41.0 °F 64% 29.71 in 10.0 mi SSW 25.3 mph 36.8 mph N/A   Mostly Cloudy
6:51 AM 53.1 °F - 42.1 °F 66% 29.73 in 10.0 mi SSW 24.2 mph 38.0 mph N/A   Mostly Cloudy
7:51 AM 53.1 °F - 43.0 °F 69% 29.73 in 10.0 mi SSW 20.7 mph 33.4 mph N/A   Overcast
8:51 AM 54.0 °F - 44.1 °F 69% 29.73 in 10.0 mi SSW 18.4 mph 31.1 mph N/A   Overcast
9:51 AM 55.0 °F - 44.1 °F 67% 29.74 in 10.0 mi SSW 24.2 mph 34.5 mph N/A   Overcast
10:51 AM 55.0 °F - 45.0 °F 69% 29.77 in 10.0 mi SSW 17.3 mph 32.2 mph 0.00 in Rain Light Rain
11:51 AM 55.9 °F - 46.0 °F 69% 29.78 in 10.0 mi SW 18.4 mph 32.2 mph 0.00 in   Overcast
12:51 PM 52.0 °F - 46.0 °F 80% 29.82 in 6.0 mi West 24.2 mph 34.5 mph 0.01 in Rain Light Rain
1:51 PM 52.0 °F - 41.0 °F 66% 29.86 in 10.0 mi West 31.1 mph 40.3 mph 0.00 in   Overcast
2:21 PM 50.0 °F - 39.9 °F 68% 29.89 in 10.0 mi WSW 26.5 mph 38.0 mph N/A   Overcast
2:51 PM 48.9 °F - 39.9 °F 71% 29.93 in 10.0 mi West 17.3 mph 33.4 mph N/A   Overcast
3:51 PM 48.0 °F - 37.9 °F 68% 29.98 in 10.0 mi West 19.6 mph 28.8 mph N/A   Overcast
4:51 PM 42.1 °F 33.9 °F 34.0 °F 73% 30.06 in 10.0 mi WNW 17.3 mph - N/A   Overcast
5:51 PM 43.0 °F 36.4 °F 34.0 °F 71% 30.11 in 10.0 mi West 12.7 mph 21.9 mph N/A   Overcast
6:51 PM 43.0 °F 38.2 °F 34.0 °F 71% 30.14 in 10.0 mi WNW 8.1 mph - N/A   Overcast
7:51 PM 42.1 °F 37.7 °F 34.0 °F 73% 30.16 in 10.0 mi NW 6.9 mph - N/A   Overcast
8:51 PM 42.1 °F 39.2 °F 33.1 °F 70% 30.17 in 10.0 mi North 4.6 mph - N/A   Overcast
9:51 PM 41.0 °F 36.4 °F 33.1 °F 73% 30.20 in 10.0 mi North 6.9 mph - N/A   Overcast
10:51 PM 39.9 °F 35.8 °F 33.1 °F 77% 30.20 in 10.0 mi NNE 5.8 mph - N/A   Overcast
11:51 PM 41.0 °F 36.4 °F 33.1 °F 73% 30.21 in 10.0 mi ENE 6.9 mph - N/A   Overcast